,,,PA_Meas_PMT16A,,PR_Meas_QMR101_102,,RH_Meas_QMH101,,SR_Meas_QMS101,,TA_Meas_QMH101,,GenWind,,GenWind,
date,time,status,PA,status,PR,status,RH,status,SR,status,TA,status,DirAvg,status,SpdAvg,
2008-04-07, 00:00:04,VALID,1004.99,VALID,0,VALID,87.1905,VALID,0.100563,VALID,25.0858,VALID,356,VALID,0.556641,
2008-04-07, 00:01:04,VALID,1004.98,VALID,0,VALID,87.0379,VALID,0.100563,VALID,25.1267,VALID,4,VALID,0.803516,
2008-04-07, 00:02:04,VALID,1004.99,VALID,0,VALID,87.1523,VALID,0,VALID,25.1461,VALID,3,VALID,0.411328,
2008-04-07, 00:03:04,VALID,1004.98,VALID,0,VALID,87.2362,VALID,0.100563,VALID,25.1461,VALID,3,VALID,0.285937,
2008-04-07, 00:04:04,VALID,1004.96,VALID,0,VALID,86.9921,VALID,0.100563,VALID,25.1442,VALID,2,VALID,0.420312,
2008-04-07, 00:05:04,VALID,1004.93,VALID,0,VALID,87.3659,VALID,0.100563,VALID,25.1656,VALID,2,VALID,0.1875,
2008-04-07, 00:06:04,VALID,1004.93,VALID,0,VALID,87.2134,VALID,0.100563,VALID,25.1637,VALID,2,VALID,0.448047,
2008-04-07, 00:07:04,VALID,1004.92,VALID,0,VALID,87.2591,VALID,0.100563,VALID,25.1851,VALID,351,VALID,0.541797,
2008-04-07, 00:08:04,VALID,1004.9,VALID,0,VALID,87.0989,VALID,0,VALID,25.1656,VALID,359,VALID,0.934375,
2008-04-07, 00:09:04,VALID,1004.88,VALID,0,VALID,87.076,VALID,0,VALID,25.2454,VALID,8,VALID,1.14844,
2008-04-07, 00:10:04,VALID,1004.87,VALID,0,VALID,87.0913,VALID,0,VALID,25.2435,VALID,3,VALID,1.03164,
2008-04-07, 00:11:04,VALID,1004.89,VALID,0,VALID,86.8777,VALID,0,VALID,25.2825,VALID,358,VALID,0.662109,
2008-04-07, 00:12:04,VALID,1004.9,VALID,0,VALID,86.8472,VALID,0,VALID,25.3233,VALID,354,VALID,0.690625,
2008-04-07, 00:13:04,VALID,1004.92,VALID,0,VALID,86.7404,VALID,0,VALID,25.3214,VALID,354,VALID,0.340234,
2008-04-07, 00:14:04,VALID,1004.91,VALID,0,VALID,86.7175,VALID,0,VALID,25.3623,VALID,343,VALID,0.906641,
2008-04-07, 00:15:04,VALID,1004.93,VALID,0,VALID,87.015,VALID,0,VALID,25.3818,VALID,335,VALID,0.028125,
2008-04-07, 00:16:04,VALID,1004.93,VALID,0,VALID,86.9616,VALID,0,VALID,25.4012,VALID,266,VALID,0.708984,
2008-04-07, 00:17:04,VALID,1004.94,VALID,0,VALID,86.8014,VALID,0,VALID,25.3993,VALID,342,VALID,0.717578,
2008-04-07, 00:18:04,VALID,1004.91,VALID,0,VALID,86.8701,VALID,0,VALID,25.4597,VALID,8,VALID,0.807422,
2008-04-07, 00:19:04,VALID,1004.9,VALID,0,VALID,86.809,VALID,0,VALID,25.4772,VALID,348,VALID,0.749609,
2008-04-07, 00:20:04,VALID,1004.92,VALID,0,VALID,86.8929,VALID,0,VALID,25.5181,VALID,358,VALID,0.383594,
2008-04-07, 00:21:04,VALID,1004.87,VALID,0,VALID,86.7175,VALID,0,VALID,25.5181,VALID,344,VALID,0.2375,
2008-04-07, 00:22:04,VALID,1004.85,VALID,0,VALID,86.8395,VALID,0,VALID,25.5376,VALID,355,VALID,0.220703,
2008-04-07, 00:23:04,VALID,1004.79,VALID,0,VALID,86.9464,VALID,0.100563,VALID,25.5357,VALID,345,VALID,0.615234,
2008-04-07, 00:24:04,VALID,1004.76,VALID,0,VALID,86.8624,VALID,0.100563,VALID,25.5337,VALID,8,VALID,1.89727,
2008-04-07, 00:25:04,VALID,1004.78,VALID,0,VALID,86.9998,VALID,0.100563,VALID,25.5551,VALID,360,VALID,0.58125,
2008-04-07, 00:26:04,VALID,1004.74,VALID,0,VALID,86.7556,VALID,0,VALID,25.5746,VALID,345,VALID,0.726953,
2008-04-07, 00:27:04,VALID,1004.68,VALID,0,VALID,86.7709,VALID,0.100563,VALID,25.5941,VALID,343,VALID,0.842969,
2008-04-07, 00:28:04,VALID,1004.66,VALID,0,VALID,86.6717,VALID,0,VALID,25.6136,VALID,359,VALID,0.841016,
2008-04-07, 00:29:04,VALID,1004.64,VALID,0,VALID,86.6946,VALID,0.100563,VALID,25.6136,VALID,27,VALID,0.683594,
2008-04-07, 00:30:04,VALID,1004.6,VALID,0,VALID,86.7327,VALID,0,VALID,25.6136,VALID,338,VALID,0.593359,
2008-04-07, 00:31:04,VALID,1004.62,VALID,0,VALID,86.4123,VALID,0.100563,VALID,25.6136,VALID,314,VALID,0.720703,
2008-04-07, 00:32:04,VALID,1004.61,VALID,0,VALID,86.687,VALID,0.100563,VALID,25.6136,VALID,359,VALID,0.264453,
2008-04-07, 00:33:04,VALID,1004.65,VALID,0,VALID,86.6565,VALID,0.100563,VALID,25.6136,VALID,251,VALID,0.144531,
2008-04-07, 00:34:04,VALID,1004.65,VALID,0,VALID,86.5573,VALID,0.100563,VALID,25.6136,VALID,337,VALID,0.694141,
2008-04-07, 00:35:04,VALID,1004.68,VALID,0,VALID,86.5191,VALID,0.100563,VALID,25.6116,VALID,290,VALID,0.516797,
2008-04-07, 00:36:04,VALID,1004.69,VALID,0,VALID,86.336,VALID,0.100563,VALID,25.5921,VALID,295,VALID,0.603516,
2008-04-07, 00:37:04,VALID,1004.69,VALID,0,VALID,86.3284,VALID,0.100563,VALID,25.633,VALID,280,VALID,0.882813,
2008-04-07, 00:38:04,VALID,1004.72,VALID,0,VALID,86.1682,VALID,0,VALID,25.6545,VALID,300,VALID,0.980859,
2008-04-07, 00:39:04,VALID,1004.7,VALID,0,VALID,86.3437,VALID,0,VALID,25.6545,VALID,299,VALID,0.419141,
2008-04-07, 00:40:04,VALID,1004.69,VALID,0,VALID,86.2979,VALID,0,VALID,25.635,VALID,292,VALID,0.558203,
2008-04-07, 00:41:04,VALID,1004.7,VALID,0,VALID,86.542,VALID,0,VALID,25.6155,VALID,288,VALID,0.0816406,
2008-04-07, 00:42:04,VALID,1004.7,VALID,0,VALID,86.275,VALID,0,VALID,25.6155,VALID,292,VALID,0.930469,
2008-04-07, 00:43:04,VALID,1004.67,VALID,0,VALID,86.481,VALID,0,VALID,25.5765,VALID,303,VALID,0.660937,
2008-04-07, 00:44:04,VALID,1004.68,VALID,0,VALID,86.6336,VALID,0,VALID,25.5551,VALID,294,VALID,0.378125,
2008-04-07, 00:45:04,VALID,1004.67,VALID,0,VALID,86.7938,VALID,0,VALID,25.5571,VALID,320,VALID,0.183594,
2008-04-07, 00:46:04,VALID,1004.69,VALID,0,VALID,86.9235,VALID,0,VALID,25.4967,VALID,330,VALID,0.632422,
2008-04-07, 00:47:04,VALID,1004.66,VALID,0,VALID,86.9845,VALID,0,VALID,25.5181,VALID,13,VALID,0.40625,
2008-04-07, 00:48:04,VALID,1004.64,VALID,0,VALID,87.0303,VALID,0,VALID,25.4772,VALID,349,VALID,0.817969,
2008-04-07, 00:49:04,VALID,1004.6,VALID,0,VALID,87.1905,VALID,0,VALID,25.4792,VALID,359,VALID,0.612891,
2008-04-07, 00:50:04,VALID,1004.58,VALID,0,VALID,87.3736,VALID,0,VALID,25.4792,VALID,349,VALID,0.683594,
2008-04-07, 00:51:04,VALID,1004.54,VALID,0,VALID,87.4346,VALID,0,VALID,25.4597,VALID,352,VALID,0.832422,
2008-04-07, 00:52:04,VALID,1004.52,VALID,0,VALID,87.7016,VALID,0,VALID,25.4402,VALID,349,VALID,0.741406,
2008-04-07, 00:53:04,VALID,1004.51,VALID,0,VALID,87.6482,VALID,0.100563,VALID,25.4188,VALID,356,VALID,0.808203,
2008-04-07, 00:54:04,VALID,1004.47,VALID,0,VALID,87.9228,VALID,0.100563,VALID,25.3993,VALID,6,VALID,0.971875,
2008-04-07, 00:55:04,VALID,1004.45,VALID,0,VALID,88.0373,VALID,0.100563,VALID,25.3604,VALID,356,VALID,0.864844,
2008-04-07, 00:56:04,VALID,1004.43,VALID,0,VALID,88.0602,VALID,0,VALID,25.3214,VALID,347,VALID,0.568359,
2008-04-07, 00:57:04,VALID,1004.46,VALID,0,VALID,88.2127,VALID,0.100563,VALID,25.3,VALID,349,VALID,0.735937,
2008-04-07, 00:58:04,VALID,1004.45,VALID,0,VALID,88.3348,VALID,0.100563,VALID,25.3019,VALID,349,VALID,0.364453,
2008-04-07, 00:59:04,VALID,1004.47,VALID,0,VALID,88.3195,VALID,0,VALID,25.2806,VALID,347,VALID,0.904297,
2008-04-07, 01:00:04,VALID,1004.47,VALID,0,VALID,88.3653,VALID,0.100563,VALID,25.2806,VALID,354,VALID,0.814844,
2008-04-07, 01:01:04,VALID,1004.47,VALID,0,VALID,88.4798,VALID,0.100563,VALID,25.2611,VALID,358,VALID,0.626953,
2008-04-07, 01:02:04,VALID,1004.51,VALID,0,VALID,88.3195,VALID,0.100563,VALID,25.2611,VALID,343,VALID,0.881641,
2008-04-07, 01:03:04,VALID,1004.49,VALID,0,VALID,88.4187,VALID,0.100563,VALID,25.3019,VALID,349,VALID,0.430078,
2008-04-07, 01:04:04,VALID,1004.51,VALID,0,VALID,88.2585,VALID,0.100563,VALID,25.3019,VALID,343,VALID,0.385938,
2008-04-07, 01:05:04,VALID,1004.52,VALID,0,VALID,88.1746,VALID,0.100563,VALID,25.3,VALID,345,VALID,0.757813,
2008-04-07, 01:06:04,VALID,1004.55,VALID,0,VALID,88.2814,VALID,0.100563,VALID,25.3195,VALID,354,VALID,0.749609,
2008-04-07, 01:07:04,VALID,1004.52,VALID,0,VALID,88.0907,VALID,0.100563,VALID,25.3604,VALID,348,VALID,0.817969,
2008-04-07, 01:08:04,VALID,1004.52,VALID,0,VALID,88.0678,VALID,0.100563,VALID,25.3798,VALID,340,VALID,0.751562,
2008-04-07, 01:09:04,VALID,1004.53,VALID,0,VALID,88.0678,VALID,0.100563,VALID,25.3779,VALID,5,VALID,0.914063,
2008-04-07, 01:10:04,VALID,1004.51,VALID,0,VALID,87.8847,VALID,0,VALID,25.3779,VALID,353,VALID,1.01172,
2008-04-07, 01:11:04,VALID,1004.51,VALID,0,VALID,87.9915,VALID,0.100563,VALID,25.4169,VALID,352,VALID,0.688672,
2008-04-07, 01:12:04,VALID,1004.54,VALID,0,VALID,87.8389,VALID,0,VALID,25.4169,VALID,344,VALID,0.622656,
2008-04-07, 01:13:04,VALID,1004.5,VALID,0,VALID,87.7855,VALID,0,VALID,25.4363,VALID,338,VALID,0.833594,
2008-04-07, 01:14:04,VALID,1004.51,VALID,0,VALID,87.7855,VALID,0.100563,VALID,25.4363,VALID,357,VALID,0.512891,
2008-04-07, 01:15:04,VALID,1004.51,VALID,0,VALID,87.7321,VALID,0.100563,VALID,25.4558,VALID,355,VALID,0.558203,
2008-04-07, 01:16:04,VALID,1004.53,VALID,0,VALID,87.6787,VALID,0.100563,VALID,25.4753,VALID,354,VALID,0.717578,
2008-04-07, 01:17:04,VALID,1004.51,VALID,0,VALID,87.6635,VALID,0.100563,VALID,25.4967,VALID,340,VALID,0.803906,
2008-04-07, 01:18:04,VALID,1004.5,VALID,0,VALID,87.6406,VALID,0.100563,VALID,25.4967,VALID,354,VALID,0.619922,
2008-04-07, 01:19:04,VALID,1004.51,VALID,0,VALID,87.5948,VALID,0.100563,VALID,25.4753,VALID,335,VALID,1.17383,
2008-04-07, 01:20:04,VALID,1004.52,VALID,0,VALID,87.6863,VALID,0.100563,VALID,25.5162,VALID,2,VALID,0.384766,
2008-04-07, 01:21:04,VALID,1004.5,VALID,0,VALID,87.6863,VALID,0.100563,VALID,25.4948,VALID,353,VALID,0.502734,
2008-04-07, 01:22:04,VALID,1004.51,VALID,0,VALID,87.755,VALID,0.100563,VALID,25.5162,VALID,1,VALID,0.559766,
2008-04-07, 01:23:04,VALID,1004.53,VALID,0,VALID,87.8313,VALID,0,VALID,25.5162,VALID,347,VALID,0.0929687,
2008-04-07, 01:24:04,VALID,1004.49,VALID,0,VALID,87.7932,VALID,0.100563,VALID,25.4948,VALID,335,VALID,0.212891,
2008-04-07, 01:25:04,VALID,1004.51,VALID,0,VALID,87.7703,VALID,0.100563,VALID,25.5162,VALID,331,VALID,0.0140625,
2008-04-07, 01:26:04,VALID,1004.5,VALID,0,VALID,87.6787,VALID,0.100563,VALID,25.5357,VALID,307,VALID,0.614453,
2008-04-07, 01:27:04,VALID,1004.49,VALID,0,VALID,87.7245,VALID,0,VALID,25.5337,VALID,299,VALID,0.401953,
2008-04-07, 01:28:04,VALID,1004.46,VALID,0,VALID,87.6711,VALID,0.100563,VALID,25.5337,VALID,328,VALID,0.200781,
2008-04-07, 01:29:04,VALID,1004.44,VALID,0,VALID,87.6863,VALID,0.100563,VALID,25.5532,VALID,328,VALID,0,
2008-04-07, 01:30:04,VALID,1004.42,VALID,0,VALID,87.6558,VALID,0,VALID,25.5551,VALID,328,VALID,0,
2008-04-07, 01:31:04,VALID,1004.44,VALID,0,VALID,87.6253,VALID,0,VALID,25.5551,VALID,331,VALID,0.263281,
2008-04-07, 01:32:04,VALID,1004.39,VALID,0,VALID,87.7092,VALID,0.100563,VALID,25.5337,VALID,333,VALID,0.338281,
2008-04-07, 01:33:04,VALID,1004.42,VALID,0,VALID,88.167,VALID,0.100563,VALID,25.5142,VALID,333,VALID,0.216797,
2008-04-07, 01:34:04,VALID,1004.37,VALID,0,VALID,88.5713,VALID,0.100563,VALID,25.4558,VALID,333,VALID,0.372266,
2008-04-07, 01:35:04,VALID,1004.33,VALID,0,VALID,88.7925,VALID,0,VALID,25.4188,VALID,20,VALID,0.490234,
2008-04-07, 01:36:04,VALID,1004.31,VALID,0,VALID,89.029,VALID,0.100563,VALID,25.339,VALID,21,VALID,0.451562,
2008-04-07, 01:37:04,VALID,1004.26,VALID,0,VALID,89.3647,VALID,0.100563,VALID,25.2611,VALID,21,VALID,0.529688,
2008-04-07, 01:38:04,VALID,1004.21,VALID,0,VALID,89.7309,VALID,0.100563,VALID,25.2027,VALID,21,VALID,0.526563,
2008-04-07, 01:39:04,VALID,1004.17,VALID,0,VALID,89.9979,VALID,0,VALID,25.1442,VALID,21,VALID,0.451562,
2008-04-07, 01:40:04,VALID,1004.17,VALID,0,VALID,90.2649,VALID,0.100563,VALID,25.1053,VALID,21,VALID,0.4875,
2008-04-07, 01:41:04,VALID,1004.12,VALID,0,VALID,90.6006,VALID,0,VALID,25.0469,VALID,21,VALID,0.249609,
2008-04-07, 01:42:04,VALID,1004.1,VALID,0,VALID,90.86,VALID,0.100563,VALID,25.0293,VALID,21,VALID,0,
2008-04-07, 01:43:04,VALID,1004.05,VALID,0,VALID,91.1728,VALID,0.100563,VALID,24.9904,VALID,21,VALID,0,
2008-04-07, 01:44:04,VALID,1004.03,VALID,0,VALID,91.333,VALID,0.100563,VALID,24.9495,VALID,21,VALID,0,
2008-04-07, 01:45:04,VALID,1004.01,VALID,0,VALID,91.4703,VALID,0.100563,VALID,24.9106,VALID,21,VALID,0,
2008-04-07, 01:46:04,VALID,1003.97,VALID,0,VALID,91.6839,VALID,0.100563,VALID,24.8716,VALID,21,VALID,0,
2008-04-07, 01:47:04,VALID,1003.97,VALID,0,VALID,91.7983,VALID,0.100563,VALID,24.8522,VALID,21,VALID,0,
2008-04-07, 01:48:04,VALID,1003.94,VALID,0,VALID,91.867,VALID,0.100563,VALID,24.8346,VALID,21,VALID,0,
2008-04-07, 01:49:04,VALID,1003.93,VALID,0,VALID,92.0424,VALID,0.100563,VALID,24.8346,VALID,60,VALID,0.295703,
2008-04-07, 01:50:04,VALID,1003.89,VALID,0,VALID,92.1569,VALID,0.100563,VALID,24.7937,VALID,1,VALID,0.848828,
2008-04-07, 01:51:04,VALID,1003.89,VALID,0,VALID,92.134,VALID,0.100563,VALID,24.8346,VALID,1,VALID,0.143359,
2008-04-07, 01:52:04,VALID,1003.86,VALID,0,VALID,92.073,VALID,0.100563,VALID,24.8522,VALID,1,VALID,0.112109,
2008-04-07, 01:53:04,VALID,1003.84,VALID,0,VALID,92.0348,VALID,0,VALID,24.854,VALID,1,VALID,0.106641,
2008-04-07, 01:54:04,VALID,1003.82,VALID,0,VALID,92.0653,VALID,0,VALID,24.8735,VALID,1,VALID,0.144531,
2008-04-07, 01:55:04,VALID,1003.8,VALID,0,VALID,92.0043,VALID,0,VALID,24.8735,VALID,1,VALID,0.128125,
2008-04-07, 01:56:04,VALID,1003.81,VALID,0,VALID,91.928,VALID,0.100563,VALID,24.893,VALID,1,VALID,0,
2008-04-07, 01:57:04,VALID,1003.78,VALID,0,VALID,92.0119,VALID,0,VALID,24.893,VALID,1,VALID,0.0679687,
2008-04-07, 01:58:04,VALID,1003.79,VALID,0,VALID,91.9662,VALID,0,VALID,24.9125,VALID,360,VALID,0.250391,
2008-04-07, 01:59:04,VALID,1003.81,VALID,0,VALID,91.8517,VALID,0.100563,VALID,24.9319,VALID,360,VALID,0,
2008-04-07, 02:00:04,VALID,1003.79,VALID,0,VALID,91.8136,VALID,0,VALID,24.9319,VALID,286,VALID,0.430078,
2008-04-07, 02:01:04,VALID,1003.81,VALID,0,VALID,91.5389,VALID,0,VALID,24.9709,VALID,301,VALID,0.189844,
2008-04-07, 02:02:04,VALID,1003.84,VALID,0,VALID,91.3406,VALID,0.100563,VALID,25.0079,VALID,303,VALID,0.405469,
2008-04-07, 02:03:04,VALID,1003.82,VALID,0,VALID,91.0812,VALID,0.100563,VALID,25.0877,VALID,303,VALID,0.173438,
2008-04-07, 02:04:04,VALID,1003.86,VALID,0,VALID,90.7684,VALID,0,VALID,25.1461,VALID,289,VALID,0.215234,
2008-04-07, 02:05:04,VALID,1003.85,VALID,0,VALID,90.4556,VALID,0,VALID,25.1832,VALID,284,VALID,0.157813,
2008-04-07, 02:06:04,VALID,1003.87,VALID,0,VALID,90.3183,VALID,0,VALID,25.224,VALID,284,VALID,0.028125,
2008-04-07, 02:07:04,VALID,1003.87,VALID,0,VALID,90.2039,VALID,0.100563,VALID,25.2435,VALID,284,VALID,0.187891,
2008-04-07, 02:08:04,VALID,1003.87,VALID,0,VALID,90.1581,VALID,0,VALID,25.224,VALID,284,VALID,0,
2008-04-07, 02:09:04,VALID,1003.85,VALID,0,VALID,89.9674,VALID,0,VALID,25.2435,VALID,291,VALID,0.633203,
2008-04-07, 02:10:04,VALID,1003.83,VALID,0,VALID,89.853,VALID,0,VALID,25.2435,VALID,299,VALID,0.497266,
2008-04-07, 02:11:04,VALID,1003.81,VALID,0,VALID,89.7538,VALID,0,VALID,25.2825,VALID,319,VALID,0.279687,
2008-04-07, 02:12:04,VALID,1003.76,VALID,0,VALID,89.6393,VALID,0,VALID,25.2825,VALID,346,VALID,0.475,
2008-04-07, 02:13:04,VALID,1003.73,VALID,0,VALID,89.8682,VALID,0,VALID,25.2806,VALID,347,VALID,0.517187,
2008-04-07, 02:14:04,VALID,1003.67,VALID,0,VALID,89.9674,VALID,0,VALID,25.2221,VALID,350,VALID,0.347656,
2008-04-07, 02:15:04,VALID,1003.64,VALID,0,VALID,90.0742,VALID,0,VALID,25.1851,VALID,354,VALID,0.594922,
2008-04-07, 02:16:04,VALID,1003.61,VALID,0,VALID,90.181,VALID,0.100563,VALID,25.1637,VALID,330,VALID,0.622656,
2008-04-07, 02:17:04,VALID,1003.6,VALID,0,VALID,90.2115,VALID,0,VALID,25.1442,VALID,350,VALID,0.526563,
2008-04-07, 02:18:04,VALID,1003.59,VALID,0,VALID,90.2878,VALID,0,VALID,25.1461,VALID,350,VALID,0.385547,
2008-04-07, 02:19:04,VALID,1003.61,VALID,0,VALID,90.2573,VALID,0,VALID,25.1461,VALID,352,VALID,0.480859,
2008-04-07, 02:20:04,VALID,1003.58,VALID,0,VALID,90.3259,VALID,0,VALID,25.1267,VALID,304,VALID,0.392969,
2008-04-07, 02:21:04,VALID,1003.61,VALID,0,VALID,90.2725,VALID,0,VALID,25.1267,VALID,352,VALID,0.851172,
2008-04-07, 02:22:04,VALID,1003.58,VALID,0,VALID,90.1505,VALID,0,VALID,25.1461,VALID,324,VALID,0.695703,
2008-04-07, 02:23:04,VALID,1003.56,VALID,0,VALID,89.9064,VALID,0,VALID,25.1851,VALID,351,VALID,0.667578,
2008-04-07, 02:24:04,VALID,1003.54,VALID,0,VALID,89.6546,VALID,0,VALID,25.1832,VALID,337,VALID,0.807031,
2008-04-07, 02:25:04,VALID,1003.54,VALID,0,VALID,89.5173,VALID,0.100563,VALID,25.2435,VALID,335,VALID,1.21797,
2008-04-07, 02:26:04,VALID,1003.54,VALID,0,VALID,89.3189,VALID,0,VALID,25.2611,VALID,355,VALID,0.690234,
2008-04-07, 02:27:04,VALID,1003.54,VALID,0,VALID,89.0748,VALID,0.100563,VALID,25.3,VALID,357,VALID,0.609766,
2008-04-07, 02:28:04,VALID,1003.52,VALID,0,VALID,89.0214,VALID,0,VALID,25.3409,VALID,13,VALID,0.269922,
2008-04-07, 02:29:04,VALID,1003.57,VALID,0,VALID,88.7239,VALID,0.100563,VALID,25.3798,VALID,344,VALID,0.737891,
2008-04-07, 02:30:04,VALID,1003.53,VALID,0,VALID,88.64,VALID,0.100563,VALID,25.4188,VALID,296,VALID,0.556641,
2008-04-07, 02:31:04,VALID,1003.53,VALID,0,VALID,88.4416,VALID,0,VALID,25.4188,VALID,282,VALID,0.644141,
2008-04-07, 02:32:04,VALID,1003.56,VALID,0,VALID,88.2967,VALID,0,VALID,25.4169,VALID,326,VALID,0.374219,
2008-04-07, 02:33:04,VALID,1003.58,VALID,0,VALID,88.1441,VALID,0.100563,VALID,25.4577,VALID,289,VALID,0.937109,
2008-04-07, 02:34:04,VALID,1003.58,VALID,0,VALID,87.9686,VALID,0,VALID,25.4558,VALID,296,VALID,0.755469,
2008-04-07, 02:35:04,VALID,1003.59,VALID,0,VALID,87.8542,VALID,0.100563,VALID,25.4753,VALID,292,VALID,0.588281,
2008-04-07, 02:36:04,VALID,1003.58,VALID,0,VALID,87.8618,VALID,0,VALID,25.5357,VALID,319,VALID,0.685938,
2008-04-07, 02:37:04,VALID,1003.59,VALID,0,VALID,87.7321,VALID,0,VALID,25.5357,VALID,292,VALID,0.792969,
2008-04-07, 02:38:04,VALID,1003.57,VALID,0,VALID,87.7474,VALID,0,VALID,25.5551,VALID,287,VALID,1.02617,
2008-04-07, 02:39:04,VALID,1003.54,VALID,0,VALID,87.6406,VALID,0,VALID,25.5337,VALID,298,VALID,0.515234,
2008-04-07, 02:40:04,VALID,1003.53,VALID,0,VALID,87.8008,VALID,0,VALID,25.5357,VALID,299,VALID,0.149219,
2008-04-07, 02:41:04,VALID,1003.53,VALID,0,VALID,87.7016,VALID,0,VALID,25.5357,VALID,299,VALID,0.350391,
2008-04-07, 02:42:04,VALID,1003.54,VALID,0,VALID,87.7245,VALID,0,VALID,25.5357,VALID,308,VALID,0.487891,
2008-04-07, 02:43:04,VALID,1003.52,VALID,0,VALID,87.7245,VALID,0.100563,VALID,25.5162,VALID,329,VALID,0.481641,
2008-04-07, 02:44:04,VALID,1003.51,VALID,0,VALID,87.7474,VALID,0,VALID,25.5162,VALID,354,VALID,1.12578,
2008-04-07, 02:45:04,VALID,1003.51,VALID,0,VALID,87.7398,VALID,0.100563,VALID,25.5162,VALID,348,VALID,0.701172,
2008-04-07, 02:46:04,VALID,1003.52,VALID,0,VALID,87.8923,VALID,0,VALID,25.5181,VALID,355,VALID,0.745313,
2008-04-07, 02:47:04,VALID,1003.53,VALID,0,VALID,87.9686,VALID,0,VALID,25.4772,VALID,352,VALID,0.867578,
2008-04-07, 02:48:04,VALID,1003.55,VALID,0,VALID,88.1441,VALID,0,VALID,25.4383,VALID,346,VALID,0.538281,
2008-04-07, 02:49:04,VALID,1003.56,VALID,0,VALID,88.1899,VALID,0,VALID,25.4383,VALID,345,VALID,0.782031,
2008-04-07, 02:50:04,VALID,1003.58,VALID,0,VALID,88.2814,VALID,0,VALID,25.4188,VALID,351,VALID,0.755078,
2008-04-07, 02:51:04,VALID,1003.62,VALID,0,VALID,88.3043,VALID,0,VALID,25.3993,VALID,348,VALID,0.695313,
2008-04-07, 02:52:04,VALID,1003.63,VALID,0,VALID,88.5789,VALID,0,VALID,25.3993,VALID,357,VALID,0.570313,
2008-04-07, 02:53:04,VALID,1003.67,VALID,0,VALID,88.5713,VALID,0,VALID,25.3798,VALID,344,VALID,0.564453,
2008-04-07, 02:54:04,VALID,1003.72,VALID,0,VALID,88.7468,VALID,0.100563,VALID,25.339,VALID,350,VALID,0.360547,
2008-04-07, 02:55:04,VALID,1003.74,VALID,0,VALID,88.7544,VALID,0,VALID,25.3409,VALID,350,VALID,0.403516,
2008-04-07, 02:56:04,VALID,1003.78,VALID,0,VALID,88.8993,VALID,0.100563,VALID,25.3,VALID,350,VALID,0.260156,
2008-04-07, 02:57:04,VALID,1003.82,VALID,0,VALID,89.1511,VALID,0.100563,VALID,25.3,VALID,350,VALID,0,
2008-04-07, 02:58:04,VALID,1003.87,VALID,0,VALID,89.3952,VALID,0.100563,VALID,25.2416,VALID,350,VALID,0.00117188,
2008-04-07, 02:59:04,VALID,1003.86,VALID,0,VALID,89.6927,VALID,0,VALID,25.2027,VALID,350,VALID,0.33125,
2008-04-07, 03:00:04,VALID,1003.88,VALID,0,VALID,90.0589,VALID,0.100563,VALID,25.1248,VALID,350,VALID,0.242578,
2008-04-07, 03:01:04,VALID,1003.9,VALID,0,VALID,90.3183,VALID,0,VALID,25.0858,VALID,350,VALID,0.281641,
2008-04-07, 03:02:04,VALID,1003.93,VALID,0,VALID,90.8523,VALID,0,VALID,25.0877,VALID,350,VALID,0.219531,
2008-04-07, 03:03:04,VALID,1003.92,VALID,0,VALID,90.8142,VALID,0,VALID,25.0469,VALID,350,VALID,0.375,
2008-04-07, 03:04:04,VALID,1003.95,VALID,0,VALID,90.9668,VALID,0,VALID,25.0488,VALID,350,VALID,0.204297,
2008-04-07, 03:05:04,VALID,1003.95,VALID,0,VALID,91.1117,VALID,0.100563,VALID,25.0079,VALID,350,VALID,0,
2008-04-07, 03:06:04,VALID,1003.97,VALID,0,VALID,91.1575,VALID,0.100563,VALID,24.9885,VALID,355,VALID,0.514844,
2008-04-07, 03:07:04,VALID,1003.95,VALID,0,VALID,91.3101,VALID,0,VALID,24.9495,VALID,357,VALID,0.434375,
2008-04-07, 03:08:04,VALID,1003.95,VALID,0,VALID,91.3864,VALID,0,VALID,24.9125,VALID,10,VALID,0.558984,
2008-04-07, 03:09:04,VALID,1003.93,VALID,0,VALID,91.4703,VALID,0,VALID,24.8754,VALID,10,VALID,0.233203,
2008-04-07, 03:10:04,VALID,1003.86,VALID,0,VALID,91.6534,VALID,0,VALID,24.8559,VALID,10,VALID,0.176563,
2008-04-07, 03:11:04,VALID,1003.86,VALID,0,VALID,91.7907,VALID,0,VALID,24.817,VALID,10,VALID,0.384766,
2008-04-07, 03:12:04,VALID,1003.84,VALID,0,VALID,91.9356,VALID,0,VALID,24.7956,VALID,10,VALID,0.374219,
2008-04-07, 03:13:04,VALID,1003.86,VALID,0,VALID,92.0196,VALID,0,VALID,24.7761,VALID,14,VALID,0.175391,
2008-04-07, 03:14:04,VALID,1003.85,VALID,0,VALID,92.0501,VALID,0,VALID,24.7567,VALID,16,VALID,0,
2008-04-07, 03:15:04,VALID,1003.86,VALID,0,VALID,92.1721,VALID,0,VALID,24.7372,VALID,16,VALID,0.00234375,
2008-04-07, 03:16:04,VALID,1003.88,VALID,0,VALID,92.5688,VALID,0,VALID,24.778,VALID,34,VALID,0.476953,
2008-04-07, 03:17:04,VALID,1003.89,VALID,0,VALID,92.8435,VALID,0,VALID,24.7372,VALID,150,VALID,0.545313,
2008-04-07, 03:18:04,VALID,1003.86,VALID,0,VALID,92.729,VALID,0,VALID,24.7177,VALID,150,VALID,0.323828,
2008-04-07, 03:19:04,VALID,1003.9,VALID,0,VALID,92.9121,VALID,0,VALID,24.7177,VALID,150,VALID,0.399609,
2008-04-07, 03:20:04,VALID,1003.94,VALID,0,VALID,93.0266,VALID,0,VALID,24.7372,VALID,150,VALID,0.196484,
2008-04-07, 03:21:04,VALID,1003.92,VALID,0,VALID,92.9274,VALID,0,VALID,24.7391,VALID,150,VALID,0.103906,
2008-04-07, 03:22:04,VALID,1003.9,VALID,0,VALID,92.9961,VALID,0,VALID,24.7391,VALID,150,VALID,0,
2008-04-07, 03:23:04,VALID,1003.91,VALID,0,VALID,93.1029,VALID,0,VALID,24.7177,VALID,150,VALID,0.207422,
2008-04-07, 03:24:04,VALID,1003.89,VALID,0,VALID,93.0723,VALID,0,VALID,24.6788,VALID,150,VALID,0.329297,
2008-04-07, 03:25:04,VALID,1003.9,VALID,0,VALID,93.0952,VALID,0,VALID,24.6788,VALID,148,VALID,0.380469,
2008-04-07, 03:26:04,VALID,1003.93,VALID,0,VALID,93.0952,VALID,0,VALID,24.6612,VALID,146,VALID,0.373437,
2008-04-07, 03:27:04,VALID,1003.9,VALID,0,VALID,93.1791,VALID,0,VALID,24.6398,VALID,146,VALID,0.201172,
2008-04-07, 03:28:04,VALID,1003.9,VALID,0,VALID,93.2097,VALID,0,VALID,24.6222,VALID,146,VALID,0.383984,
2008-04-07, 03:29:04,VALID,1003.9,VALID,0,VALID,93.3088,VALID,0,VALID,24.5814,VALID,61,VALID,0.479688,
2008-04-07, 03:30:04,VALID,1003.9,VALID,0,VALID,93.4538,VALID,0,VALID,24.562,VALID,61,VALID,0.422656,
2008-04-07, 03:31:04,VALID,1003.89,VALID,0,VALID,93.5224,VALID,0,VALID,24.562,VALID,61,VALID,0.413281,
2008-04-07, 03:32:04,VALID,1003.86,VALID,0,VALID,93.675,VALID,0,VALID,24.5425,VALID,61,VALID,0.4125,
2008-04-07, 03:33:04,VALID,1003.84,VALID,0,VALID,93.6445,VALID,0,VALID,24.5443,VALID,61,VALID,0.541016,
2008-04-07, 03:34:04,VALID,1003.84,VALID,0,VALID,93.7208,VALID,0,VALID,24.5035,VALID,61,VALID,0.517578,
2008-04-07, 03:35:04,VALID,1003.86,VALID,0,VALID,93.7971,VALID,0,VALID,24.5035,VALID,41,VALID,0.534375,
2008-04-07, 03:36:04,VALID,1003.88,VALID,0,VALID,93.8123,VALID,0,VALID,24.4841,VALID,41,VALID,0.461328,
2008-04-07, 03:37:04,VALID,1003.91,VALID,0,VALID,93.8886,VALID,0,VALID,24.4841,VALID,41,VALID,0.289063,
2008-04-07, 03:38:04,VALID,1003.91,VALID,0,VALID,93.9268,VALID,0,VALID,24.4841,VALID,41,VALID,0,
2008-04-07, 03:39:04,VALID,1003.94,VALID,0,VALID,93.9954,VALID,0,VALID,24.4646,VALID,41,VALID,0,
2008-04-07, 03:40:04,VALID,1003.96,VALID,0,VALID,94.0336,VALID,0,VALID,24.4859,VALID,41,VALID,0,